GW0823 Weather Reports


Display with metric or nautical units.
time (UTC)temp
F
wind
direction
speed
MPH
gust
MPH
rain 1hr
in
rain 24hr
in
rain mn
in
humidity
%
barometer
mb
20260504023059 46 96 2.0 4.0 0.00 0.00 0.00 72 1015.2
20260504021557 48 110 3.0 6.0 0.00 0.00 0.00 67 1015.3
20260504014558 50 105 3.0 4.0 0.00 0.00 0.00 65 1015.5
20260504013058 50 115 2.0 3.0 0.00 0.00 0.00 63 1015.4
20260504011558 51 112 3.0 4.0 0.00 0.00 0.00 63 1015.3
20260504010109 52 95 1.0 3.0 0.00 0.00 0.00 59 1015.3
20260504004603 52 95 1.0 3.0 0.00 0.00 0.00 58 1015.1
20260504003058 53 98 1.0 3.0 0.00 0.00 0.00 54 1014.9
20260504001614 54 96 1.0 4.0 0.00 0.00 0.00 53 1015.0
20260504000059 55 74 1.0 2.0 0.00 0.00 0.00 46 1015.0
20260503234557 56 0 0.0 0.0 0.00 0.00 0.00 43 1015.1
20260503233057 57 0 0.0 2.0 0.00 0.00 0.00 40 1015.2
20260503231558 57 55 0.0 3.0 0.00 0.00 0.00 37 1015.3
20260503230101 57 53 0.0 4.0 0.00 0.00 0.00 36 1015.4
20260503224557 58 74 1.0 7.0 0.00 0.00 0.00 37 1015.5
20260503223103 59 261 2.0 8.0 0.00 0.00 0.00 34 1015.4
20260503221558 59 211 1.0 10.0 0.00 0.00 0.00 37 1015.6
20260503220110 60 117 3.0 7.0 0.00 0.00 0.00 34 1015.5
20260503214557 60 220 2.0 9.0 0.00 0.00 0.00 35 1015.5
20260503213057 59 128 2.0 12.0 0.00 0.00 0.00 34 1015.4
20260503211609 60 209 1.0 9.0 0.00 0.00 0.00 34 1015.4
20260503210059 59 0 0.0 7.0 0.00 0.00 0.00 33 1015.6
20260503204606 59 40 2.0 11.0 0.00 0.00 0.00 34 1015.8
20260503203056 59 272 4.0 12.0 0.00 0.00 0.00 36 1016.1
20260503201559 59 245 2.0 9.0 0.00 0.00 0.00 37 1016.2
20260503200059 58 261 2.0 10.0 0.00 0.00 0.00 36 1016.7
20260503194557 59 37 2.0 7.0 0.00 0.00 0.00 35 1016.9
20260503193113 58 252 5.0 15.0 0.00 0.00 0.00 38 1017.3
20260503191601 58 100 5.0 14.0 0.00 0.00 0.00 37 1017.5
20260503190055 58 238 2.0 12.0 0.00 0.00 0.00 38 1017.6
20260503184559 58 234 4.0 10.0 0.00 0.00 0.00 42 1017.9
20260503183105 57 217 6.0 12.0 0.00 0.00 0.00 40 1018.0
20260503181622 56 79 6.0 14.0 0.00 0.00 0.00 41 1017.9
20260503180131 56 170 5.0 14.0 0.00 0.00 0.00 39 1018.2
20260503174559 56 258 2.0 8.0 0.00 0.00 0.00 39 1018.4
20260503173102 56 319 5.0 10.0 0.00 0.00 0.00 41 1018.4
20260503171558 54 0 1.0 8.0 0.00 0.00 0.00 36 1018.6
20260503170103 54 113 1.0 9.0 0.00 0.00 0.00 42 1018.8
20260503150105 50 252 3.0 12.0 0.00 0.00 0.00 54 1020.1
20260503120110 35 0 0.0 0.0 0.00 0.00 0.00 96 1019.6
20260503100123 30 0 0.0 0.0 0.00 0.00 0.00 93 1018.3
20260503081601 31 0 0.0 0.0 0.00 0.00 0.00 91 1017.8
20260503071619 33 0 0.0 0.0 0.00 0.00 0.00 90 1017.4
20260503070104 33 0 0.0 0.0 0.00 0.00 0.00 90 1017.3
20260503060116 34 0 0.0 2.0 0.00 0.00 0.00 86 1017.2
20260503054558 35 101 1.0 3.0 0.00 0.00 0.00 86 1017.2
20260503053057 36 0 0.0 0.0 0.00 0.00 0.00 85 1017.2
20260503051554 37 0 0.0 0.0 0.00 0.00 0.00 83 1017.2
20260503050057 37 0 0.0 0.0 0.00 0.00 0.00 83 1017.2
20260503044626 38 0 0.0 0.0 0.00 0.00 0.00 81 1017.1
20260503043057 38 0 0.0 0.0 0.00 0.00 0.00 79 1017.2
20260503041557 40 0 0.0 1.0 0.00 0.00 0.00 75 1017.0
20260503040105 40 0 1.0 4.0 0.00 0.00 0.00 72 1017.0
20260503034602 41 250 1.0 4.0 0.00 0.00 0.00 72 1017.0
20260503033058 41 246 0.0 4.0 0.00 0.00 0.00 70 1016.9
20260503031601 42 249 3.0 8.0 0.00 0.00 0.00 67 1016.8
20260503030111 43 267 2.0 8.0 0.00 0.00 0.00 66 1016.8
20260503024602 43 312 4.0 8.0 0.00 0.00 0.00 65 1016.9